[[{"header":{"parameterUnit":"m.s-1","parameterCategory":1,"la1":30.2991,"la2":30.254,"lo1":-89.0895,"lo2":-89.0444,"dy":0.0017,"dx":0.0017,"nx":28,"ny":28,"refTime":"2024-03-20T03:00:00:Z","depth":0,"parameterNumber":2,"parameterNumberName":"U-component_of_WINDS"},"data":[0,0,0,0,0,0,0,0,0,0,0,0,0,0,0,0,0,0,0,0,0,0,0,0,0,0,0,0,0,0,0,0,0,0,0,0,0,0,0,0,0,0,0,0,0,0,0,0,0,0,0,0,0,0,0,0,0,0,0.7687,0.7689,0,0.7797,0.7798,0.7799,0.7838,0.7837,0.7837,0.7837,0.7951,0.7954,0.7958,0,0,0,0,0,0,0,0,0,0,0,0,0,0.7513,0.7516,0.7687,0.7689,0.769,0.7796,0.7798,0.78,0.7838,0.7837,0.7837,0.7836,0.795,0.7954,0.7958,0,0,0,0,0,0,0,0,0,0,0,0,0,0.7602,0.7517,0.7687,0.7722,0.7726,0.7796,0.7798,0.78,0.7838,0.7837,0.7837,0.7836,0.7948,0.7953,0.7959,0.8003,0,0,0.7974,0.7976,0,0,0,0,0,0,0,0,0.7597,0.7608,0.7715,0.772,0.7724,0.7803,0.7778,0.7868,0.7838,0.7796,0.7837,0.7836,0.7902,0.7911,0.7933,0.8008,0.8013,0.7975,0.7978,0.798,0.7981,0,0,0,0,0,0,0,0.759,0.7604,0.7731,0.7717,0.7722,0.7732,0.7744,0.7796,0.7851,0.7799,0.7802,0.7815,0.7905,0.7928,0.7936,0.8015,0.7975,0.7979,0.7982,0.7984,0.8129,0.813,0,0,0,0,0,0,0.7578,0.7598,0.7727,0.7734,0.7658,0.7736,0.7749,0.7778,0.7851,0.7861,0.7815,0.7816,0.792,0.793,0.794,0.7995,0.798,0.7985,0.7988,0.8128,0.8129,0.813,0,0,0,0,0,0,0.7574,0.7589,0.7723,0.7667,0.7685,0.774,0.7772,0.7781,0.7804,0.7863,0.7873,0.7829,0.792,0.7933,0.7986,0.8,0.7987,0.7992,0.8128,0.8129,0.813,0.8107,0,0,0,0,0,0,0.7569,0.7588,0.7605,0.7667,0.7688,0.7767,0.7773,0.7783,0.7813,0.7815,0.7878,0.7888,0.792,0.7978,0.7991,0.8007,0.7996,0.8127,0.8128,0.8129,0.8106,0.8107,0.8107,0,0,0,0,0,0.7563,0.7595,0.7606,0.7621,0.771,0.7767,0.7779,0.7815,0.7814,0.7831,0.7869,0.7886,0.7996,0.7983,0.7998,0.8016,0.8126,0.8128,0.8129,0.8106,0.8107,0.8107,0,0,0,0,0,0,0.7535,0.7604,0.7616,0.767,0.7712,0.7774,0.7797,0.7814,0.7859,0.7859,0.7902,0.7916,0.7966,0.7996,0.7981,0.8061,0.8062,0.8067,0.8039,0.804,0.8041,0.8032,0.8,0,0,0,0,0,0.7534,0.7574,0.7633,0.7674,0.7695,0.7742,0.7769,0.7792,0.7838,0.7857,0.7898,0.7942,0.7987,0.8015,0.806,0.8111,0.8125,0.813,0.813,0.813,0.8134,0.8162,0.8165,0.8136,0.8136,0.8136,0,0,0.7535,0.7578,0.7601,0.767,0.7705,0.7746,0.7757,0.78,0.7831,0.7863,0.7915,0.7947,0.8,0.8051,0.8076,0.8078,0.8145,0.8133,0.8132,0.8136,0.8164,0.8167,0.8169,0.8137,0.8137,0.8137,0,0,0.7556,0.7593,0.763,0.7665,0.7718,0.7749,0.7758,0.7817,0.7838,0.7891,0.7916,0.7953,0.8029,0.8065,0.8093,0.8125,0.8143,0.8139,0.8141,0.8168,0.817,0.8172,0.8183,0.8186,0.8142,0.8142,0.8142,0,0.755,0.7611,0.7648,0.7688,0.7718,0.7748,0.7786,0.7818,0.7884,0.7903,0.7904,0.7999,0.8037,0.8097,0.8104,0.8126,0.8137,0.8132,0.8166,0.8169,0.8172,0.8182,0.8186,0.8141,0.8141,0.8142,0.8142,0,0.7601,0.7643,0.7667,0.7727,0.7759,0.7799,0.7841,0.7869,0.7889,0.792,0.7972,0.8018,0.8071,0.8087,0.8109,0.815,0.8149,0.8158,0.816,0.8173,0.8183,0.8188,0.814,0.814,0.8141,0.8141,0,0,0.7608,0.7686,0.7695,0.7721,0.7781,0.7815,0.7855,0.7906,0.7929,0.7973,0.8007,0.807,0.8077,0.8109,0.8135,0.8158,0.8179,0.8164,0.8166,0.8164,0.8226,0.8219,0.8223,0.8191,0.8192,0.8192,0.8221,0,0.7636,0.7708,0.7741,0.7799,0.7837,0.7866,0.7901,0.7941,0.797,0.8008,0.8041,0.8084,0.8091,0.8111,0.8135,0.8171,0.8192,0.817,0.8223,0.8225,0.8208,0.8229,0.8222,0.8247,0.8226,0.8227,0.8227,0,0.7679,0.7721,0.7782,0.7835,0.7853,0.7883,0.7932,0.7967,0.8013,0.8033,0.8067,0.8091,0.8134,0.8133,0.8192,0.8176,0.82,0.8221,0.8223,0.8229,0.8226,0.8235,0.8256,0.8259,0.8234,0.8234,0.8233,0,0.7677,0.7748,0.7794,0.7816,0.788,0.79,0.7928,0.7974,0.8002,0.8044,0.8063,0.811,0.8136,0.8172,0.8208,0.8204,0.8264,0.8266,0.8281,0.828,0.8293,0.8291,0.8317,0.8309,0.8309,0.8309,0.8309,0,0.7704,0.774,0.7793,0.7821,0.7861,0.7899,0.7938,0.7968,0.8008,0.8042,0.807,0.8102,0.8147,0.8185,0.8213,0.8257,0.8269,0.8286,0.8293,0.8284,0.8281,0.83,0.8299,0.831,0.8309,0.8309,0.8309,0,0.7709,0.7746,0.7796,0.7852,0.7867,0.7894,0.7942,0.797,0.8,0.8043,0.8055,0.8102,0.8148,0.8187,0.8247,0.8266,0.8312,0.8321,0.8295,0.8299,0.8312,0.831,0.8351,0.8357,0.8344,0.8344,0.8344,0,0.7723,0.7751,0.7809,0.7833,0.786,0.7899,0.7927,0.7965,0.7993,0.8046,0.8068,0.8114,0.8154,0.8225,0.8265,0.8311,0.8321,0.8332,0.8328,0.8317,0.832,0.8318,0.832,0.8332,0.8332,0.8332,0.8331,0,0.7745,0.7762,0.7801,0.7845,0.7877,0.7915,0.7953,0.7972,0.8016,0.8046,0.8092,0.8122,0.8183,0.8229,0.8279,0.8308,0.8327,0.8332,0.8338,0.8328,0.8312,0.832,0.8295,0.8331,0.8331,0.8331,0.8331,0.8331,0.7755,0.778,0.7824,0.7866,0.7899,0.7933,0.7962,0.7994,0.8033,0.8084,0.8104,0.815,0.8195,0.8264,0.8293,0.833,0.8333,0.8342,0.8344,0.8345,0.8343,0.8306,0.8339,0.8339,0.8339,0.8339,0.8339,0,0.7778,0.7807,0.7845,0.7896,0.7929,0.7943,0.7986,0.8012,0.8052,0.8092,0.8129,0.8181,0.8225,0.8268,0.8315,0.8336,0.8346,0.8347,0.8346,0.8352,0.8338,0.8328,0.8338,0.8338,0.8338,0.8338,0.8338,0.8338,0.7793,0.7836,0.7857,0.7917,0.7946,0.7991,0.8014,0.8046,0.8077,0.8133,0.817,0.8197,0.8238,0.8287,0.8328,0.834,0.8356,0.8354,0.8368,0.8354,0.8353,0.8353,0.8344,0.8357,0.8357,0.8379,0.8379,0.838]},{"header":{"parameterUnit":"m.s-1","parameterCategory":1,"la1":30.2991,"la2":30.254,"lo1":-89.0895,"lo2":-89.0444,"dy":0.0017,"dx":0.0017,"nx":28,"ny":28,"refTime":"2024-03-20T03:00:00:Z","depth":0,"parameterNumber":3,"parameterNumberName":"V-component_of_WINDS"},"data":[0,0,0,0,0,0,0,0,0,0,0,0,0,0,0,0,0,0,0,0,0,0,0,0,0,0,0,0,0,0,0,0,0,0,0,0,0,0,0,0,0,0,0,0,0,0,0,0,0,0,0,0,0,0,0,0,0,0,1.6101,1.61,0,1.6062,1.6062,1.6061,1.6012,1.6011,1.601,1.6009,1.597,1.5969,1.5969,0,0,0,0,0,0,0,0,0,0,0,0,0,1.613,1.6129,1.6101,1.61,1.61,1.6062,1.6062,1.6061,1.6012,1.6011,1.601,1.6009,1.597,1.5969,1.5969,0,0,0,0,0,0,0,0,0,0,0,0,0,1.6107,1.6129,1.6101,1.6071,1.6068,1.6062,1.6062,1.6061,1.6012,1.6011,1.601,1.6009,1.597,1.5969,1.5969,1.599,0,0,1.5967,1.5967,0,0,0,0,0,0,0,0,1.6108,1.6106,1.6076,1.6073,1.6069,1.6041,1.6057,1.6037,1.6012,1.6033,1.6009,1.6008,1.5994,1.5992,1.5987,1.5988,1.5986,1.5967,1.5967,1.5967,1.5967,0,0,0,0,0,0,0,1.611,1.6107,1.6085,1.6075,1.6071,1.6058,1.6054,1.6053,1.6021,1.6031,1.6028,1.6024,1.5992,1.5988,1.5986,1.5986,1.5967,1.5967,1.5967,1.5966,1.5998,1.5999,0,0,0,0,0,0,1.6116,1.6109,1.6087,1.6084,1.6086,1.6059,1.6054,1.6051,1.6021,1.6015,1.6025,1.6022,1.5989,1.5986,1.5984,1.6004,1.5967,1.5966,1.5966,1.5997,1.5998,1.6,0,0,0,0,0,0,1.6117,1.6115,1.6088,1.6095,1.6091,1.606,1.6057,1.6051,1.6046,1.6016,1.601,1.6026,1.5988,1.5985,1.5988,1.6002,1.5966,1.5966,1.5996,1.5997,1.5999,1.6046,0,0,0,0,0,0,1.6118,1.6115,1.6124,1.6096,1.6091,1.6094,1.6058,1.6051,1.6045,1.6041,1.6015,1.601,1.5987,1.5989,1.5987,1.6001,1.5965,1.5994,1.5996,1.5998,1.6043,1.6049,1.6055,0,0,0,0,0,1.6119,1.6139,1.6124,1.6122,1.6101,1.6095,1.6092,1.6065,1.6047,1.6054,1.6034,1.6011,1.6001,1.599,1.5988,1.6001,1.5993,1.5996,1.5998,1.6041,1.6048,1.6055,0,0,0,0,0,0,1.617,1.6135,1.6118,1.613,1.6116,1.6087,1.6095,1.6074,1.6064,1.606,1.6027,1.6021,1.6028,1.6015,1.6003,1.6018,1.5993,1.5996,1.6026,1.6033,1.6039,1.6042,1.5965,0,0,0,0,0,1.6183,1.6181,1.615,1.6164,1.6157,1.6128,1.6124,1.6104,1.6088,1.6081,1.6062,1.6046,1.6039,1.6036,1.6028,1.6041,1.6033,1.6049,1.6055,1.606,1.6062,1.6065,1.6071,1.6008,1.6008,1.6008,0,0,1.6209,1.6189,1.6191,1.6173,1.616,1.6158,1.6123,1.6123,1.6121,1.6081,1.6083,1.6067,1.6048,1.6055,1.6058,1.6045,1.6077,1.6063,1.6067,1.6066,1.6068,1.6074,1.6079,1.601,1.6009,1.6009,0,0,1.6255,1.6241,1.6249,1.6236,1.6215,1.6195,1.6197,1.617,1.6158,1.6159,1.6128,1.6125,1.6114,1.6101,1.6092,1.613,1.6107,1.6128,1.6158,1.6161,1.6166,1.617,1.6182,1.6187,1.6131,1.6131,1.6131,0,1.629,1.6286,1.6256,1.6257,1.6249,1.6213,1.622,1.6208,1.6186,1.6181,1.6167,1.6151,1.6135,1.6138,1.6147,1.6142,1.6142,1.6131,1.6168,1.6172,1.6175,1.6186,1.619,1.6133,1.6133,1.6133,1.6133,0,1.6329,1.6326,1.6335,1.6314,1.6307,1.6312,1.6281,1.6278,1.6258,1.6238,1.6238,1.6218,1.6204,1.6203,1.6184,1.6202,1.6194,1.6174,1.6149,1.6184,1.6193,1.6197,1.6137,1.6136,1.6135,1.6135,0,0,1.6407,1.6368,1.6371,1.636,1.6333,1.633,1.6332,1.6317,1.6314,1.63,1.6299,1.6289,1.627,1.626,1.6239,1.6242,1.627,1.6222,1.6221,1.623,1.6286,1.63,1.6305,1.6255,1.6256,1.6256,1.6287,0,1.6447,1.6448,1.642,1.6428,1.6423,1.6387,1.6388,1.6371,1.6352,1.6345,1.6324,1.6317,1.6294,1.6287,1.6289,1.6267,1.6281,1.6264,1.6252,1.6252,1.6258,1.6311,1.6326,1.6356,1.6291,1.6291,1.6292,0,1.6495,1.6481,1.6489,1.6459,1.6456,1.6458,1.6441,1.6435,1.6414,1.64,1.6388,1.6363,1.6361,1.6337,1.6332,1.6321,1.6314,1.6302,1.6303,1.63,1.6274,1.6308,1.6365,1.637,1.6297,1.6297,1.6297,0,1.6549,1.6533,1.6534,1.6526,1.6492,1.6493,1.6479,1.6457,1.6449,1.6434,1.6428,1.6414,1.6405,1.6394,1.6365,1.635,1.6362,1.6336,1.6349,1.635,1.6353,1.6353,1.6409,1.6351,1.6351,1.6351,1.635,0,1.6596,1.6601,1.6558,1.6559,1.6563,1.653,1.6534,1.6516,1.6496,1.6492,1.646,1.6456,1.6419,1.641,1.6388,1.6385,1.6383,1.637,1.6364,1.6372,1.6374,1.6367,1.6363,1.6352,1.6351,1.6351,1.6351,0,1.6657,1.6629,1.6627,1.6594,1.6586,1.659,1.6562,1.656,1.6539,1.6533,1.653,1.6496,1.6484,1.6454,1.6435,1.6419,1.6423,1.6412,1.643,1.6426,1.6439,1.6438,1.6492,1.6497,1.6437,1.6438,1.6438,0,1.6689,1.6692,1.6658,1.6653,1.664,1.6632,1.6623,1.659,1.6582,1.6556,1.6558,1.6543,1.653,1.6512,1.6485,1.6469,1.6457,1.6477,1.6455,1.6462,1.6455,1.6455,1.6454,1.6482,1.6483,1.6484,1.6484,0,1.6747,1.6732,1.6721,1.6704,1.6695,1.668,1.6663,1.6661,1.6623,1.6615,1.6602,1.6592,1.6571,1.6556,1.6536,1.652,1.6495,1.6491,1.6493,1.6501,1.6511,1.6504,1.6442,1.649,1.649,1.6489,1.6489,1.6489,1.6793,1.6793,1.6768,1.6756,1.674,1.6725,1.6721,1.6698,1.6687,1.6667,1.6648,1.6636,1.6612,1.6582,1.6568,1.6557,1.6545,1.6548,1.6548,1.6549,1.6552,1.6513,1.6554,1.6553,1.6553,1.6553,1.6553,0,1.6848,1.683,1.6819,1.6796,1.6786,1.6763,1.6743,1.6736,1.6726,1.6706,1.6693,1.6677,1.6661,1.6632,1.6614,1.6611,1.6599,1.6607,1.6607,1.6603,1.6566,1.6565,1.6617,1.6617,1.6617,1.6617,1.6617,1.6617,1.6875,1.6873,1.6854,1.6843,1.6825,1.6813,1.6803,1.6788,1.6771,1.6754,1.6741,1.6722,1.6698,1.6677,1.6661,1.6653,1.6647,1.6659,1.6647,1.6612,1.6606,1.66,1.6599,1.6658,1.6658,1.6685,1.6685,1.6685]}]]